Weather History for Troy, MI

Change the Weather History Date:

Saturday, February 9, 2013

  Actual Average (KDET) Record (KDET)
Temperature  
Mean Temperature 25 °F -  
Max Temperature 34 °F 29 °F 56 °F (1966)
Min Temperature 16 °F 16 °F -4 °F (1979)
Degree Days  
Heating Degree Days 40    
Moisture  
Dew Point 18 °F    
Average Humidity 72    
Maximum Humidity 89    
Minimum Humidity 47    
Precipitation  
Precipitation 0.00 in - - ()
Sea Level Pressure  
Sea Level Pressure 30.38 in    
Wind  
Wind Speed 5 mph (SW)    
Max Wind Speed 9 mph    
Max Gust Speed -    
Visibility 10 miles    
Events Snow    
Averages and records for this station are not official NWS values.
T = Trace of Precipitation, MM = Missing Value Source: NWS Daily Summary

Daily Weather History Graph

Daily Weather History Graph

Search for Another Location

Airport:

Trip Planner

Search our weather history database for the weather conditions in past years. The results will help you decide how hot, cold, wet, or windy it might be!

Date:

Astronomy

Feb. 09, 2013 Rise Set
Actual Time 7:37 AM EST 5:57 PM EST
Civil Twilight 7:07 AM EST 6:26 PM EST
Nautical Twilight 6:34 AM EST 6:59 PM EST
Astronomical Twilight 6:01 AM EST 7:32 PM EST
Moon 6:47 AM EST (2/9) 5:39 PM EST (2/9)
Length of Visible Light 11h 18m
Length of Day
10h 20m
Waning Crescent, 0% of the Moon is Illuminated
Feb 9
Waning Crescent
Feb 10
New
Feb 17
First Quarter
Feb 25
Full
Mar 4
Last Quarter

Hourly Weather History & Observations

Time (EST) Temp. Windchill Dew Point Humidity Pressure Visibility Wind Dir Wind Speed Gust Speed Precip Events Conditions
12:34 AM 25.7 °F 18.0 °F 19.0 °F 76% 30.35 in 10.0 mi NW 6.9 mph - N/A   Overcast
12:54 AM 25.3 °F 17.6 °F 18.7 °F 76% 30.36 in 10.0 mi NNW 6.9 mph - N/A Snow Light Snow
1:14 AM 24.8 °F 19.1 °F 18.5 °F 77% 30.35 in 10.0 mi NW 4.6 mph - N/A   Overcast
1:34 AM 24.6 °F 17.7 °F 18.3 °F 77% 30.36 in 10.0 mi West 5.8 mph - N/A   Overcast
1:54 AM 24.4 °F 15.6 °F 18.1 °F 77% 30.36 in 10.0 mi WNW 8.1 mph - N/A   Mostly Cloudy
2:14 AM 23.0 °F 13.9 °F 17.2 °F 79% 30.37 in 10.0 mi WNW 8.1 mph - N/A   Scattered Clouds
2:35 AM 21.9 °F 11.7 °F 16.5 °F 80% 30.37 in 10.0 mi WNW 9.2 mph - N/A   Clear
2:54 AM 21.2 °F 11.7 °F 15.8 °F 80% 30.38 in 10.0 mi WNW 8.1 mph - N/A   Clear
3:14 AM 20.7 °F 11.0 °F 15.6 °F 81% 30.38 in 10.0 mi NW 8.1 mph - N/A   Clear
3:35 AM 20.3 °F 11.5 °F 15.3 °F 81% 30.38 in 10.0 mi NW 6.9 mph - N/A   Clear
3:54 AM 19.9 °F 9.3 °F 14.9 °F 81% 30.38 in 10.0 mi NW 9.2 mph - N/A   Clear
4:14 AM 19.6 °F 10.6 °F 14.9 °F 82% 30.38 in 10.0 mi NW 6.9 mph - N/A   Clear
4:35 AM 19.0 °F 10.0 °F 14.5 °F 83% 30.39 in 10.0 mi NNW 6.9 mph - N/A   Clear
4:54 AM 18.5 °F 11.7 °F 14.0 °F 83% 30.39 in 10.0 mi NNW 4.6 mph - N/A   Clear
5:15 AM 18.3 °F 9.1 °F 14.0 °F 83% 30.41 in 10.0 mi NW 6.9 mph - N/A   Clear
5:34 AM 18.1 °F 7.9 °F 14.0 °F 84% 30.42 in 10.0 mi NW 8.1 mph - N/A   Clear
5:54 AM 18.1 °F 12.9 °F 14.0 °F 84% 30.41 in 10.0 mi NNW 3.5 mph - N/A   Clear
6:15 AM 17.6 °F 9.3 °F 13.8 °F 85% 30.41 in 10.0 mi NNW 5.8 mph - N/A   Clear
6:34 AM 17.4 °F 10.4 °F 13.8 °F 86% 30.41 in 10.0 mi North 4.6 mph - N/A   Clear
6:54 AM 17.2 °F 7.8 °F 14.0 °F 87% 30.42 in 10.0 mi North 6.9 mph - N/A   Clear
7:15 AM 16.7 °F - 14.0 °F 89% 30.42 in 10.0 mi Calm Calm - N/A   Clear
7:34 AM 16.7 °F - 14.0 °F 89% 30.43 in 10.0 mi Calm Calm - N/A   Clear
7:55 AM 17.1 °F - 14.2 °F 88% 30.44 in 10.0 mi Calm Calm - N/A   Clear
8:14 AM 16.3 °F 10.8 °F 13.3 °F 88% 30.44 in 10.0 mi NNW 3.5 mph - N/A   Clear
8:34 AM 17.6 °F - 14.5 °F 88% 30.44 in 10.0 mi Calm Calm - N/A   Clear
8:54 AM 19.9 °F - 16.2 °F 85% 30.45 in 10.0 mi Calm Calm - N/A   Clear
9:14 AM 21.4 °F - 17.1 °F 83% 30.45 in 10.0 mi Calm Calm - N/A   Clear
9:35 AM 23.5 °F - 18.1 °F 80% 30.44 in 10.0 mi Calm Calm - N/A   Clear
9:54 AM 24.6 °F - 18.3 °F 77% 30.44 in 10.0 mi Calm Calm - N/A   Clear
10:15 AM 26.6 °F - 18.5 °F 71% 30.44 in 10.0 mi Calm Calm - N/A   Clear
10:34 AM 27.3 °F - 18.3 °F 69% 30.45 in 10.0 mi Calm Calm - N/A   Clear
10:55 AM 29.1 °F - 18.3 °F 64% 30.45 in 10.0 mi Calm Calm - N/A   Clear
11:14 AM 30.2 °F - 17.6 °F 60% 30.44 in 10.0 mi Calm Calm - N/A   Clear
11:34 AM 30.4 °F 25.6 °F 17.1 °F 58% 30.44 in 10.0 mi ENE 4.6 mph - N/A   Clear
11:55 AM 30.4 °F - 17.8 °F 60% 30.44 in 10.0 mi Calm Calm - N/A   Clear
12:14 PM 31.8 °F - 17.6 °F 56% 30.44 in 10.0 mi Calm Calm - N/A   Clear
12:35 PM 32.0 °F - 16.5 °F 53% 30.43 in 10.0 mi Calm Calm - N/A   Clear
12:54 PM 32.4 °F 29.1 °F 16.9 °F 53% 30.42 in 10.0 mi SSE 3.5 mph - N/A   Clear
1:15 PM 32.0 °F 28.7 °F 16.0 °F 52% 30.41 in 10.0 mi South 3.5 mph - N/A   Clear
1:34 PM 33.3 °F - 15.1 °F 47% 30.41 in 10.0 mi Calm Calm - N/A   Clear
1:54 PM 34.0 °F 28.8 °F 15.8 °F 47% 30.40 in 10.0 mi South 5.8 mph - N/A   Clear
2:15 PM 34.2 °F 31.2 °F 16.2 °F 48% 30.40 in 10.0 mi South 3.5 mph - N/A   Clear
2:34 PM 34.0 °F 28.0 °F 16.5 °F 49% 30.38 in 10.0 mi SSW 6.9 mph - N/A   Clear
2:55 PM 34.5 °F 28.6 °F 16.7 °F 48% 30.38 in 10.0 mi South 6.9 mph - N/A   Clear
3:14 PM 34.2 °F 29.0 °F 17.6 °F 51% 30.37 in 10.0 mi South 5.8 mph - N/A   Clear
3:34 PM 34.7 °F 28.1 °F 16.9 °F 48% 30.37 in 10.0 mi South 8.1 mph - N/A   Clear
3:55 PM 34.7 °F 28.8 °F 16.9 °F 48% 30.36 in 10.0 mi South 6.9 mph - N/A   Clear
4:14 PM 34.2 °F 28.2 °F 17.6 °F 51% 30.36 in 10.0 mi South 6.9 mph - N/A   Clear
4:35 PM 34.0 °F 28.0 °F 18.5 °F 53% 30.36 in 10.0 mi SSE 6.9 mph - N/A   Clear
4:55 PM 33.3 °F 26.4 °F 18.9 °F 56% 30.36 in 10.0 mi South 8.1 mph - N/A   Clear
5:14 PM 32.5 °F 24.8 °F 19.2 °F 58% 30.35 in 10.0 mi South 9.2 mph - N/A   Clear
5:35 PM 31.8 °F 24.6 °F 19.2 °F 60% 30.36 in 10.0 mi South 8.1 mph - N/A   Clear
5:54 PM 30.6 °F 23.1 °F 19.4 °F 63% 30.36 in 10.0 mi South 8.1 mph - N/A   Clear
6:15 PM 29.7 °F 23.7 °F 19.4 °F 66% 30.36 in 10.0 mi SSE 5.8 mph - N/A   Clear
6:34 PM 29.3 °F 23.2 °F 19.4 °F 67% 30.36 in 10.0 mi South 5.8 mph - N/A   Clear
6:54 PM 28.9 °F 22.8 °F 19.8 °F 69% 30.37 in 10.0 mi South 5.8 mph - N/A   Clear
7:14 PM 28.4 °F 22.2 °F 20.1 °F 71% 30.36 in 10.0 mi SSE 5.8 mph - N/A   Clear
7:34 PM 28.2 °F 22.0 °F 20.3 °F 72% 30.35 in 10.0 mi SSE 5.8 mph - N/A   Clear
7:55 PM 28.0 °F 20.8 °F 20.3 °F 73% 30.35 in 10.0 mi SSE 6.9 mph - N/A   Clear
8:14 PM 27.5 °F 23.6 °F 20.7 °F 75% 30.35 in 10.0 mi South 3.5 mph - N/A   Clear
8:34 PM 27.3 °F 23.4 °F 20.8 °F 77% 30.35 in 10.0 mi SSE 3.5 mph - N/A   Clear
8:55 PM 26.6 °F 22.6 °F 21.0 °F 79% 30.34 in 10.0 mi SSE 3.5 mph - N/A   Clear
9:14 PM 26.2 °F - 21.2 °F 81% 30.34 in 10.0 mi Calm Calm - N/A   Clear
9:34 PM 26.1 °F - 21.2 °F 82% 30.34 in 10.0 mi Calm Calm - N/A   Clear
9:55 PM 25.2 °F 20.9 °F 21.0 °F 84% 30.33 in 10.0 mi SE 3.5 mph - N/A   Clear
10:14 PM 24.8 °F - 21.0 °F 86% 30.33 in 10.0 mi Calm Calm - N/A   Clear
10:34 PM 24.6 °F - 20.8 °F 86% 30.33 in 10.0 mi Calm Calm - N/A   Clear
10:55 PM 24.1 °F 19.7 °F 20.5 °F 86% 30.32 in 10.0 mi SSE 3.5 mph - N/A   Clear
11:14 PM 23.9 °F 19.5 °F 20.5 °F 87% 30.31 in 10.0 mi SSE 3.5 mph - N/A   Clear
11:35 PM 23.9 °F - 21.0 °F 89% 30.31 in 10.0 mi Calm Calm - N/A   Clear
11:55 PM 23.4 °F - 20.3 °F 88% 30.31 in 10.0 mi Calm Calm - N/A   Clear